METEOR 2-17 DEB, 38540

Orbit data source: Space-Track

METEOR 2-17 DEB, 38540 is space debris in LEO originally from a launch on Sat, 30 Jan 1988 UTC launched from the Plesetsk Missile And Space Complex (PKMTR). Debris objects in space refer to the collection of defunct objects orbiting the Earth. Examples of debris include non-operational satellites, rocket bodies, and fragments generated from explosions, collisions, or faulty payload assembly.

Loading next visibility...
Identifier
38540, 1988-005AT
Orbit
LEO
Country
Flag of CISCIS
Related business
Manufacturer
Unknown
Mission
Spacecraft
Bus & Motor
Unknown
Mass
Unknown
Launch date (UTC)
1988-01-30 (38 years ago)
Launch vehicle
Unknown
Launch site
Plesetsk Missile And Space Complex (PKMTR)
Object type
Payload
Rocket body
Debris
Shape & HBR
Unknown shape, 0.1 m
Radar Cross Section
Small (<0.1 m²)

Expand to show TLE details & history
Last TLE update: 3 weeks ago

TLE from 3 weeks ago
0 METEOR 2-17 DEB
1 38540U 88005AT  25285.57578743  .00008237  00000-0  31265-2 0  9998
2 38540  82.5093 228.3290 0006606  75.0123 285.1794 14.30953651113368
Epoch: 2025-10-12T13:49Z
TLE epoch observation values (Epoch: 2025-10-12T13:49:08.033Z)
Latitude
-0.00005°
Longitude
-0.34542°
Altitude
790.274 km
Speed
7.459 km/s
True Right ascension
15h 13m 18s
True Declination
0° 00' 00"
Sunlit
Object was in daylight at epoch
Visualization orbit readout
Latitude
Unknown
Longitude
Unknown
Altitude
Unknown
Speed
Unknown
Apparent Right ascension
Unknown
Apparent Declination
Unknown
Sunlit
N/A
Visualization observer readout
Local Sidereal Time
07:27:13
Azimuth
Unknown
Elevation
Unknown
Doppler factor
Unknown
Orbital elements
Apogee altitude
790.367 km
Perigee altitude
780.902 km
Semi-major axis
7,163.771 km
Eccentricity
0.00066
Inclination
82.5093°
RAAN
228.329°
Arg. of periapsis
75.0123°
True anomaly
285.10633°
Mean anomaly
285.1794°
Eccentric anomaly
285.14286°
Mean motion
3.57957 °/min
Orbital period
100.57 mins
BSTAR
0.0031265
Loading maneuver chart data...
Computing Atmospheric mass density...
Loading historical data...
Loading historical data...
Loading historical data...
Loading historical data...
Loading historical data...
Loading historical data...
Loading historical data...

Documentation

Showing up to 5 results
|